Theta_e
338 338 336 334 334 334 334 333 330 325 320 319 320 321 322 320 319 320 319 319 318 315
330 332 333 334 335 337 332 326 323 321 319 319 319 322 322 319 320 320 320 319 319 317
328 328 329 331 328 329 327 323 319 318 317 317 321 322 322 320 321 320 319 318 319 318
332 325 326 324 320 324 322 320 317 317 318 321 321 322 321 321 320 318 319 320 318 318
329 325 324 323 320 323 321 320 319 319 320 320 321 322 321 319 318 317 317 317 317 316
329 325 322 319 321 320 318 319 319 320 320 321 320 320 319 318 317 317 317 317 316 315
327 325 321 321 323 324 322 322 322 323 322 321 320 319 318 318 318 318 317 317 315 313
327 326 322 323 322 322 322 322 323 322 320 320 320 316 316 318 317 316 314 311 309 308
327 324 321 323 322 323 323 323 322 319 319 317 311 303 304 310 311 308 307 306 306 306
324 322 322 325 323 322 322 321 318 318 315 310 306 298 299 301 307 306 305 305 302 300
323 323 325 326 325 323 321 318 316 314 310 308 302 297 297 298 306 305 304 300 300 297
324 323 325 323 323 320 317 315 312 309 307 306 303 296 296 300 304 303 301 299 298 298
325 324 323 319 317 316 316 312 308 305 305 300 303 294 295 297 300 299 296 298 299 296
323 318 316 316 315 315 312 308 306 305 304 303 299 300 295 294 298 295 295 296 295 295
Wind_Speed
12 7 2 6 6 4 6 5 6 6 7 7 5 6 6 5 5 6 7 8 8 6
7 9 1 3 8 3 5 4 7 6 7 5 4 6 7 6 7 7 7 7 9 9
8 7 5 5 4 4 2 6 8 8 6 5 6 7 7 6 6 7 7 7 9 9
5 9 6 7 6 2 4 5 8 9 9 9 7 6 6 7 6 8 8 8 9 10
10 7 6 7 5 3 6 6 9 7 8 7 6 6 6 7 6 7 8 9 9 10
8 7 7 5 1 1 4 5 5 5 5 5 4 4 5 5 6 6 9 9 8 10
8 9 6 3 1 1 1 3 5 4 3 2 1 3 4 5 7 7 7 7 7 6
6 8 7 4 1 2 4 4 3 3 3 2 2 4 7 6 6 6 5 4 5 5
5 7 5 6 5 5 5 2 4 4 3 5 7 9 10 6 4 4 5 6 7 8
4 5 4 5 5 5 4 3 5 5 6 8 8 11 10 9 5 6 7 8 9 8
1 2 4 5 5 3 3 4 5 6 6 7 9 11 12 11 7 7 8 8 7 8
2 3 4 4 4 4 4 5 6 7 6 7 8 12 11 12 8 9 9 7 6 8
2 4 4 4 5 4 5 6 6 7 6 7 7 11 12 14 7 8 7 6 7 8
1 4 4 5 5 5 6 7 6 6 5 7 9 9 13 13 9 7 7 7 7 7
Wind_Direction
106 102 350 302 265 271 239 215 150 138 121 130 153 148 170 196 218 214 220 223 233 250
88 89 295 309 287 224 173 135 126 120 112 121 130 185 186 212 219 226 232 235 237 243
157 163 105 79 35 328 80 112 111 104 108 135 190 203 208 218 225 242 250 256 252 251
49 68 65 81 71 43 94 132 127 148 160 176 200 208 222 245 257 252 260 259 261 268
66 82 67 62 61 97 114 146 151 175 156 169 196 212 230 248 252 259 265 268 270 272
64 77 80 82 76 46 128 131 148 168 160 172 196 222 240 265 273 267 268 279 284 291
77 102 97 112 202 146 322 157 164 166 150 149 199 273 274 271 269 276 287 302 312 328
118 115 113 112 241 221 240 220 144 125 106 76 354 13 319 294 299 316 332 359 351 346
135 127 132 142 193 211 219 178 123 111 89 64 52 25 32 359 36 23 359 347 342 339
141 122 144 160 188 201 175 142 109 92 88 83 71 31 23 358 22 350 356 352 350 336
140 159 168 177 187 157 119 111 97 81 85 89 61 33 16 337 2 356 3 1 357 356
143 202 187 177 146 124 119 92 76 85 83 79 63 29 12 349 352 360 6 2 356 349
205 205 171 141 118 109 108 95 96 89 82 62 54 37 23 6 11 11 355 339 356 30
118 85 103 116 107 111 95 100 96 96 78 61 40 49 26 17 13 360 345 349 349 347